Home   Weather   Baltimore   Past weeks

Flag for USA Past Weather in Baltimore, Maryland, USA — Yesterday and Last 2 Weeks

51 °F


Feels Like: 48 °F
Forecast: 44 / 63 °F
Wind: 9 mph from Southeast

Location: Baltimore-Washington International Airport

Current Time: Oct 26, 2016 at 11:19:58 PM

Latest Report: Oct 26, 2016 at 10:54 PM

Visibility: 10 mi

Pressure: 30.40 "Hg

Humidity: 56%

Dew Point: 36 °F

Location of BaltimoreLocation

Past Weather in Baltimore — Graph


Baltimore Temperature Yesterday

Maximum temperature yesterday: 61 °F (at 2:54 PM)
Minimum temperature yesterday: 38 °F (at 11:54 PM)
Average temperature yesterday: 49 °F

High & Low Weather Summary for the Past Weeks

High86 °F (Oct 19, 1:54 PM)100% (Oct 13, 6:54 AM)30.48 "Hg (Oct 13, 6:54 AM)
Low34 °F (Oct 26, 3:54 AM)35% (Oct 14, 3:54 PM)29.54 "Hg (Oct 21, 2:59 PM)
Average59 °F70%30.08 "Hg
* Reported Oct 11 9:54 PM — Oct 26 9:54 PM, Baltimore, Weather by CustomWeather, © 2016

Note: Actual official high and low records may vary slightly from our data, if they occured in-between our weather recording intervals... More about our weather records


Baltimore Weather History for the Previous 24 Hours

Scroll right to see more
Time TempWeatherWind HumidityBarometerVisibility
9:54 PM
Wed, Oct 26
52 °FOvercast.7 mph57%30.40 "Hg10 mi
8:54 PM50 °FOvercast.No wind63%30.41 "Hg10 mi
7:54 PM51 °FOvercast.No wind59%30.40 "Hg10 mi
6:54 PM51 °FMostly cloudy.3 mph56%30.38 "Hg10 mi
5:54 PM51 °FPartly sunny.6 mph54%30.37 "Hg10 mi
4:54 PM53 °FScattered clouds.7 mph51%30.37 "Hg10 mi
3:54 PM57 °FScattered clouds.6 mph39%30.37 "Hg10 mi
2:54 PM57 °FScattered clouds.3 mph39%30.39 "Hg10 mi
1:54 PM57 °FBroken clouds.6 mph41%30.41 "Hg10 mi
12:54 PM53 °FBroken clouds.3 mph43%30.43 "Hg10 mi
11:54 AM53 °FBroken clouds.3 mph43%30.46 "Hg10 mi
10:54 AM51 °FPartly sunny.5 mph46%30.48 "Hg10 mi
9:54 AM47 °FPartly sunny.7 mph56%30.48 "Hg10 mi
8:54 AM43 °FPartly sunny.No wind68%30.47 "Hg10 mi
7:54 AM34 °FScattered clouds.No wind88%30.45 "Hg10 mi
6:54 AM34 °FPassing clouds.No wind88%30.43 "Hg10 mi
5:54 AM34 °FPassing clouds.No wind92%30.42 "Hg10 mi
4:54 AM34 °FPassing clouds.No wind92%30.42 "Hg10 mi
3:54 AM34 °FClear.No wind92%30.40 "Hg10 mi
2:54 AM35 °FClear.3 mph92%30.41 "Hg10 mi
1:54 AM35 °FPassing clouds.No wind92%30.41 "Hg10 mi
12:54 AM36 °FPassing clouds.No wind92%30.40 "Hg10 mi
11:54 PM
Tue, Oct 25
38 °FPassing clouds.No wind83%30.40 "Hg10 mi
Weather by CustomWeather, © 2016

See weather overviewHow to use our weather pages